Year,Month,Day,Hour,Minute,Value (Times are PST for windgust in km/hr)
2012,01,23,00,00,6.40
2012,01,23,00,01,9.60
2012,01,23,00,02,9.60
2012,01,23,00,03,4.80
2012,01,23,00,04,3.20
2012,01,23,00,05,8.10
2012,01,23,00,07,4.80
2012,01,23,00,11,6.40
2012,01,23,00,12,11.30
2012,01,23,00,13,12.90
2012,01,23,00,14,4.80
2012,01,23,00,19,4.80
2012,01,23,00,20,12.90
2012,01,23,00,21,12.90
2012,01,23,00,22,9.60
2012,01,23,00,23,9.60
2012,01,23,00,24,3.20
2012,01,23,00,25,4.80
2012,01,23,00,26,8.10
2012,01,23,00,27,6.40
2012,01,23,00,28,8.10
2012,01,23,00,29,1.60
2012,01,23,00,30,9.60
2012,01,23,00,31,9.60
2012,01,23,00,32,8.10
2012,01,23,00,33,9.60
2012,01,23,00,34,6.40
2012,01,23,00,35,17.70
2012,01,23,00,36,9.60
2012,01,23,00,37,12.90
2012,01,23,00,38,16.10
2012,01,23,00,39,6.40
2012,01,23,00,40,14.50
2012,01,23,00,41,11.30
2012,01,23,00,42,11.30
2012,01,23,00,43,9.60
2012,01,23,00,45,12.90
2012,01,23,00,46,12.90
2012,01,23,00,47,8.10
2012,01,23,00,48,14.50
2012,01,23,00,49,14.50
2012,01,23,00,50,9.60
2012,01,23,00,51,11.30
2012,01,23,00,52,16.10
2012,01,23,00,53,8.10
2012,01,23,00,54,14.50
2012,01,23,00,55,11.30
2012,01,23,00,56,14.50
2012,01,23,00,57,25.70
2012,01,23,00,58,24.20
2012,01,23,00,59,17.70
2012,01,23,01,00,12.90
2012,01,23,01,01,17.70
2012,01,23,01,02,16.10
2012,01,23,01,03,17.70
2012,01,23,01,04,16.10
2012,01,23,01,05,9.60
2012,01,23,01,06,12.90
2012,01,23,01,07,11.30
2012,01,23,01,08,12.90
2012,01,23,01,09,11.30
2012,01,23,01,10,11.30
2012,01,23,01,11,17.70
2012,01,23,01,12,11.30
2012,01,23,01,13,12.90
2012,01,23,01,15,9.60
2012,01,23,01,16,16.10
2012,01,23,01,17,12.90
2012,01,23,01,18,8.10
2012,01,23,01,19,11.30
2012,01,23,01,20,14.50
2012,01,23,01,21,6.40
2012,01,23,01,22,14.50
2012,01,23,01,23,11.30
2012,01,23,01,24,8.10
2012,01,23,01,25,4.80
2012,01,23,01,26,8.10
2012,01,23,01,27,3.20
2012,01,23,01,32,1.60
2012,01,23,01,33,11.30
2012,01,23,01,34,9.60
2012,01,23,01,37,11.30
2012,01,23,01,38,6.40
2012,01,23,01,39,11.30
2012,01,23,01,40,9.60
2012,01,23,01,43,9.60
2012,01,23,01,44,17.70
2012,01,23,01,45,8.10
2012,01,23,01,46,12.90
2012,01,23,01,47,8.10
2012,01,23,01,48,9.60
2012,01,23,01,49,11.30
2012,01,23,01,50,9.60
2012,01,23,01,51,8.10
2012,01,23,01,52,1.60
2012,01,23,01,54,9.60
2012,01,23,01,55,9.60
2012,01,23,01,56,6.40
2012,01,23,01,57,6.40
2012,01,23,01,59,4.80
2012,01,23,02,00,17.70
2012,01,23,02,01,11.30
2012,01,23,02,02,8.10
2012,01,23,02,03,12.90
2012,01,23,02,04,11.30
2012,01,23,02,05,8.10
2012,01,23,02,06,8.10
2012,01,23,02,07,6.40
2012,01,23,02,08,11.30
2012,01,23,02,09,6.40
2012,01,23,02,10,3.20
2012,01,23,02,11,16.10
2012,01,23,02,12,12.90
2012,01,23,02,13,9.60
2012,01,23,02,14,8.10
2012,01,23,02,15,8.10
2012,01,23,02,17,6.40
2012,01,23,02,18,11.30
2012,01,23,02,21,4.80
2012,01,23,02,22,4.80
2012,01,23,02,25,6.40
2012,01,23,02,26,3.20
2012,01,23,02,28,9.60
2012,01,23,02,29,6.40
2012,01,23,02,31,11.30
2012,01,23,02,32,16.10
2012,01,23,02,33,12.90
2012,01,23,02,34,9.60
2012,01,23,02,35,11.30
2012,01,23,02,36,11.30
2012,01,23,02,38,11.30
2012,01,23,02,39,14.50
2012,01,23,02,40,11.30
2012,01,23,02,41,3.20
2012,01,23,02,42,6.40
2012,01,23,02,44,9.60
2012,01,23,02,45,12.90
2012,01,23,02,46,11.30
2012,01,23,02,47,9.60
2012,01,23,02,48,8.10
2012,01,23,02,53,6.40
2012,01,23,02,54,4.80
2012,01,23,02,56,9.60
2012,01,23,03,24,1.60
2012,01,23,03,25,1.60
2012,01,23,03,40,4.80
2012,01,23,03,41,3.20
2012,01,23,04,07,1.60
2012,01,23,04,15,4.80
2012,01,23,04,31,8.10
2012,01,23,04,32,4.80
2012,01,23,04,34,6.40
2012,01,23,04,35,6.40
2012,01,23,04,36,4.80
2012,01,23,04,37,4.80
2012,01,23,04,38,4.80
2012,01,23,04,41,4.80
2012,01,23,04,42,4.80
2012,01,23,04,43,6.40
2012,01,23,04,44,4.80
2012,01,23,04,45,4.80
2012,01,23,04,46,3.20
2012,01,23,04,47,4.80
2012,01,23,04,50,6.40
2012,01,23,04,51,9.60
2012,01,23,04,52,11.30
2012,01,23,04,53,6.40
2012,01,23,04,54,12.90
2012,01,23,04,55,9.60
2012,01,23,04,56,8.10
2012,01,23,04,57,11.30
2012,01,23,04,58,11.30
2012,01,23,04,59,11.30
2012,01,23,05,00,9.60
2012,01,23,05,01,8.10
2012,01,23,05,02,8.10
2012,01,23,05,03,3.20
2012,01,23,05,08,6.40
2012,01,23,05,09,11.30
2012,01,23,05,10,8.10
2012,01,23,05,11,11.30
2012,01,23,05,12,11.30
2012,01,23,05,13,11.30
2012,01,23,05,14,9.60
2012,01,23,05,15,12.90
2012,01,23,05,16,14.50
2012,01,23,05,17,17.70
2012,01,23,05,18,11.30
2012,01,23,05,19,11.30
2012,01,23,05,20,12.90
2012,01,23,05,21,11.30
2012,01,23,05,22,11.30
2012,01,23,05,23,8.10
2012,01,23,05,24,8.10
2012,01,23,05,27,8.10
2012,01,23,05,28,12.90
2012,01,23,05,29,9.60
2012,01,23,05,30,1.60
2012,01,23,05,32,6.40
2012,01,23,05,33,9.60
2012,01,23,05,46,9.60
2012,01,23,05,47,3.20
2012,01,23,05,48,11.30
2012,01,23,05,49,11.30
2012,01,23,05,50,12.90
2012,01,23,05,51,12.90
2012,01,23,05,52,16.10
2012,01,23,05,53,19.30
2012,01,23,05,54,19.30
2012,01,23,05,55,17.70
2012,01,23,05,56,14.50
2012,01,23,05,57,14.50
2012,01,23,05,58,17.70
2012,01,23,05,59,9.60
2012,01,23,06,00,11.30
2012,01,23,06,01,9.60
2012,01,23,06,02,11.30
2012,01,23,06,03,11.30
2012,01,23,06,04,14.50
2012,01,23,06,05,9.60
2012,01,23,06,06,12.90
2012,01,23,06,07,12.90
2012,01,23,06,08,17.70
2012,01,23,06,09,14.50
2012,01,23,06,10,9.60
2012,01,23,06,11,12.90
2012,01,23,06,12,11.30
2012,01,23,06,13,11.30
2012,01,23,06,14,14.50
2012,01,23,06,15,12.90
2012,01,23,06,16,9.60
2012,01,23,06,17,9.60
2012,01,23,06,18,19.30
2012,01,23,06,19,12.90
2012,01,23,06,20,12.90
2012,01,23,06,21,9.60
2012,01,23,06,22,9.60
2012,01,23,06,23,14.50
2012,01,23,06,24,14.50
2012,01,23,06,25,12.90
2012,01,23,06,26,14.50
2012,01,23,06,27,22.50
2012,01,23,06,28,19.30
2012,01,23,06,29,19.30
2012,01,23,06,30,12.90
2012,01,23,06,31,14.50
2012,01,23,06,32,12.90
2012,01,23,06,33,14.50
2012,01,23,06,34,11.30
2012,01,23,06,35,22.50
2012,01,23,06,36,9.60
2012,01,23,06,37,22.50
2012,01,23,06,38,22.50
2012,01,23,06,39,22.50
2012,01,23,06,40,17.70
2012,01,23,06,41,14.50
2012,01,23,06,42,17.70
2012,01,23,06,43,17.70
2012,01,23,06,44,19.30
2012,01,23,06,45,19.30
2012,01,23,06,46,17.70
2012,01,23,06,47,19.30
2012,01,23,06,48,19.30
2012,01,23,06,49,14.50
2012,01,23,06,50,17.70
2012,01,23,06,51,19.30
2012,01,23,06,52,12.90
2012,01,23,06,53,17.70
2012,01,23,06,54,11.30
2012,01,23,06,55,12.90
2012,01,23,06,56,14.50
2012,01,23,06,57,11.30
2012,01,23,06,58,14.50
2012,01,23,06,59,6.40
2012,01,23,07,00,11.30
2012,01,23,07,01,8.10
2012,01,23,07,02,3.20
2012,01,23,07,12,6.40
2012,01,23,07,13,8.10
2012,01,23,07,14,8.10
2012,01,23,07,15,3.20
2012,01,23,07,16,8.10
2012,01,23,07,17,11.30
2012,01,23,07,18,8.10
2012,01,23,07,19,11.30
2012,01,23,07,20,11.30
2012,01,23,07,21,11.30
2012,01,23,07,22,11.30
2012,01,23,07,23,9.60
2012,01,23,07,24,12.90
2012,01,23,07,25,11.30
2012,01,23,07,26,3.20
2012,01,23,07,27,8.10
2012,01,23,07,28,11.30
2012,01,23,07,29,11.30
2012,01,23,07,30,11.30
2012,01,23,07,31,9.60
2012,01,23,07,32,8.10
2012,01,23,08,00,8.10
2012,01,23,08,01,8.10
2012,01,23,08,02,8.10
2012,01,23,08,03,11.30
2012,01,23,08,04,9.60
2012,01,23,08,05,8.10
2012,01,23,08,06,3.20
2012,01,23,08,08,8.10
2012,01,23,08,09,8.10
2012,01,23,08,10,11.30
2012,01,23,08,11,17.70
2012,01,23,08,12,19.30
2012,01,23,08,13,14.50
2012,01,23,08,14,12.90
2012,01,23,08,15,17.70
2012,01,23,08,16,11.30
2012,01,23,08,17,11.30
2012,01,23,08,18,12.90
2012,01,23,08,19,11.30
2012,01,23,08,20,9.60
2012,01,23,08,21,12.90
2012,01,23,08,22,14.50
2012,01,23,08,23,12.90
2012,01,23,08,24,6.40
2012,01,23,08,25,9.60
2012,01,23,08,26,9.60
2012,01,23,08,27,9.60
2012,01,23,08,28,11.30
2012,01,23,08,29,8.10
2012,01,23,08,30,6.40
2012,01,23,08,31,8.10
2012,01,23,08,32,6.40
2012,01,23,08,33,9.60
2012,01,23,08,34,9.60
2012,01,23,08,35,9.60
2012,01,23,08,36,11.30
2012,01,23,08,37,8.10
2012,01,23,08,38,8.10
2012,01,23,08,39,4.80
2012,01,23,08,40,12.90
2012,01,23,08,41,8.10
2012,01,23,08,42,11.30
2012,01,23,08,43,11.30
2012,01,23,08,44,9.60
2012,01,23,08,45,11.30
2012,01,23,08,46,17.70
2012,01,23,08,47,17.70
2012,01,23,08,48,14.50
2012,01,23,08,49,11.30
2012,01,23,08,50,11.30
2012,01,23,08,51,12.90
2012,01,23,08,52,19.30
2012,01,23,08,53,12.90
2012,01,23,08,54,8.10
2012,01,23,08,55,12.90
2012,01,23,08,56,12.90
2012,01,23,08,57,14.50
2012,01,23,08,58,11.30
2012,01,23,08,59,9.60
2012,01,23,09,00,9.60
2012,01,23,09,01,11.30
2012,01,23,09,02,11.30
2012,01,23,09,03,14.50
2012,01,23,09,04,17.70
2012,01,23,09,05,11.30
2012,01,23,09,06,11.30
2012,01,23,09,07,12.90
2012,01,23,09,08,14.50
2012,01,23,09,09,14.50
2012,01,23,09,10,14.50
2012,01,23,09,11,9.60
2012,01,23,09,12,9.60
2012,01,23,09,13,8.10
2012,01,23,09,14,8.10
2012,01,23,09,15,9.60
2012,01,23,09,16,12.90
2012,01,23,09,17,11.30
2012,01,23,09,18,12.90
2012,01,23,09,19,12.90
2012,01,23,09,20,9.60
2012,01,23,09,21,11.30
2012,01,23,09,22,9.60
2012,01,23,09,23,12.90
2012,01,23,09,24,9.60
2012,01,23,09,25,6.40
2012,01,23,09,26,6.40
2012,01,23,09,27,9.60
2012,01,23,09,28,8.10
2012,01,23,09,29,6.40
2012,01,23,09,30,4.80
2012,01,23,09,31,3.20
2012,01,23,09,32,12.90
2012,01,23,09,33,12.90
2012,01,23,09,34,9.60
2012,01,23,09,35,11.30
2012,01,23,09,36,9.60
2012,01,23,09,37,14.50
2012,01,23,09,38,12.90
2012,01,23,09,39,9.60
2012,01,23,09,40,9.60
2012,01,23,09,41,11.30
2012,01,23,09,42,12.90
2012,01,23,09,43,9.60
2012,01,23,09,44,19.30
2012,01,23,09,45,17.70
2012,01,23,09,46,14.50
2012,01,23,09,47,20.90
2012,01,23,09,48,19.30
2012,01,23,09,49,16.10
2012,01,23,09,50,12.90
2012,01,23,09,51,12.90
2012,01,23,09,52,16.10
2012,01,23,09,53,14.50
2012,01,23,09,54,12.90
2012,01,23,09,55,14.50
2012,01,23,09,56,17.70
2012,01,23,09,57,24.20
2012,01,23,09,58,19.30
2012,01,23,09,59,14.50
2012,01,23,10,00,19.30
2012,01,23,10,01,19.30
2012,01,23,10,02,17.70
2012,01,23,10,03,17.70
2012,01,23,10,04,20.90
2012,01,23,10,05,20.90
2012,01,23,10,06,24.20
2012,01,23,10,07,20.90
2012,01,23,10,08,12.90
2012,01,23,10,09,22.50
2012,01,23,10,10,14.50
2012,01,23,10,11,19.30
2012,01,23,10,12,14.50
2012,01,23,10,13,14.50
2012,01,23,10,14,16.10
2012,01,23,10,15,19.30
2012,01,23,10,16,11.30
2012,01,23,10,17,17.70
2012,01,23,10,18,14.50
2012,01,23,10,19,11.30
2012,01,23,10,20,11.30
2012,01,23,10,21,8.10
2012,01,23,10,22,11.30
2012,01,23,10,23,22.50
2012,01,23,10,24,14.50
2012,01,23,10,25,19.30
2012,01,23,10,26,11.30
2012,01,23,10,27,19.30
2012,01,23,10,28,20.90
2012,01,23,10,29,19.30
2012,01,23,10,30,17.70
2012,01,23,10,31,17.70
2012,01,23,10,32,19.30
2012,01,23,10,33,17.70
2012,01,23,10,34,14.50
2012,01,23,10,35,22.50
2012,01,23,10,36,17.70
2012,01,23,10,37,17.70
2012,01,23,10,38,19.30
2012,01,23,10,39,22.50
2012,01,23,10,40,19.30
2012,01,23,10,41,19.30
2012,01,23,10,42,20.90
2012,01,23,10,43,12.90
2012,01,23,10,44,14.50
2012,01,23,10,45,11.30
2012,01,23,10,46,14.50
2012,01,23,10,47,9.60
2012,01,23,10,48,17.70
2012,01,23,10,49,17.70
2012,01,23,10,50,12.90
2012,01,23,10,51,14.50
2012,01,23,10,52,8.10
2012,01,23,10,53,12.90
2012,01,23,10,54,14.50
2012,01,23,10,55,17.70
2012,01,23,10,56,12.90
2012,01,23,10,57,17.70
2012,01,23,10,58,14.50
2012,01,23,10,59,14.50
2012,01,23,11,00,11.30
2012,01,23,11,01,3.20
2012,01,23,11,02,6.40
2012,01,23,11,03,9.60
2012,01,23,11,04,9.60
2012,01,23,11,05,9.60
2012,01,23,11,06,12.90
2012,01,23,11,07,11.30
2012,01,23,11,08,14.50
2012,01,23,11,09,12.90
2012,01,23,11,10,19.30
2012,01,23,11,11,17.70
2012,01,23,11,12,19.30
2012,01,23,11,13,17.70
2012,01,23,11,14,17.70
2012,01,23,11,15,12.90
2012,01,23,11,16,12.90
2012,01,23,11,17,12.90
2012,01,23,11,18,11.30
2012,01,23,11,19,12.90
2012,01,23,11,20,11.30
2012,01,23,11,21,9.60
2012,01,23,11,22,1.60
2012,01,23,11,23,9.60
2012,01,23,11,24,17.70
2012,01,23,11,25,14.50
2012,01,23,11,26,12.90
2012,01,23,11,27,19.30
2012,01,23,11,28,12.90
2012,01,23,11,29,12.90
2012,01,23,11,30,14.50
2012,01,23,11,31,16.10
2012,01,23,11,32,14.50
2012,01,23,11,33,9.60
2012,01,23,11,34,11.30
2012,01,23,11,35,8.10
2012,01,23,11,36,14.50
2012,01,23,11,37,9.60
2012,01,23,11,38,14.50
2012,01,23,11,39,14.50
2012,01,23,11,40,14.50
2012,01,23,11,41,17.70
2012,01,23,11,42,17.70
2012,01,23,11,43,14.50
2012,01,23,11,44,11.30
2012,01,23,11,45,11.30
2012,01,23,11,46,8.10
2012,01,23,11,47,11.30
2012,01,23,11,48,22.50
2012,01,23,11,49,20.90
2012,01,23,11,50,17.70
2012,01,23,11,51,12.90
2012,01,23,11,52,14.50
2012,01,23,11,53,12.90
2012,01,23,11,54,17.70
2012,01,23,11,55,19.30
2012,01,23,11,56,17.70
2012,01,23,11,57,19.30
2012,01,23,11,58,14.50
2012,01,23,11,59,11.30
2012,01,23,12,00,9.60
2012,01,23,12,01,17.70
2012,01,23,12,02,19.30
2012,01,23,12,03,17.70
2012,01,23,12,04,14.50
2012,01,23,12,05,11.30
2012,01,23,12,06,8.10
2012,01,23,12,07,8.10
2012,01,23,12,08,17.70
2012,01,23,12,09,19.30
2012,01,23,12,10,20.90
2012,01,23,12,11,11.30
2012,01,23,12,12,17.70
2012,01,23,12,13,24.20
2012,01,23,12,14,17.70
2012,01,23,12,15,14.50
2012,01,23,12,16,14.50
2012,01,23,12,17,17.70
2012,01,23,12,18,17.70
2012,01,23,12,19,12.90
2012,01,23,12,20,12.90
2012,01,23,12,21,12.90
2012,01,23,12,22,14.50
2012,01,23,12,23,16.10
2012,01,23,12,24,11.30
2012,01,23,12,25,19.30
2012,01,23,12,26,17.70
2012,01,23,12,27,17.70
2012,01,23,12,28,11.30
2012,01,23,12,29,12.90
2012,01,23,12,30,14.50
2012,01,23,12,31,11.30
2012,01,23,12,32,14.50
2012,01,23,12,33,14.50
2012,01,23,12,34,19.30
2012,01,23,12,35,17.70
2012,01,23,12,36,19.30
2012,01,23,12,37,14.50
2012,01,23,12,38,20.90
2012,01,23,12,39,17.70
2012,01,23,12,40,11.30
2012,01,23,12,41,12.90
2012,01,23,12,42,14.50
2012,01,23,12,43,17.70
2012,01,23,12,44,14.50
2012,01,23,12,45,16.10
2012,01,23,12,46,19.30
2012,01,23,12,47,20.90
2012,01,23,12,48,22.50
2012,01,23,12,49,22.50
2012,01,23,12,50,20.90
2012,01,23,12,51,19.30
2012,01,23,12,52,12.90
2012,01,23,12,53,9.60
2012,01,23,12,54,17.70
2012,01,23,12,55,12.90
2012,01,23,12,56,19.30
2012,01,23,12,57,19.30
2012,01,23,12,58,19.30
2012,01,23,12,59,11.30
2012,01,23,13,00,17.70
2012,01,23,13,01,14.50
2012,01,23,13,02,19.30
2012,01,23,13,03,14.50
2012,01,23,13,04,17.70
2012,01,23,13,05,17.70
2012,01,23,13,06,12.90
2012,01,23,13,07,19.30
2012,01,23,13,08,12.90
2012,01,23,13,09,8.10
2012,01,23,13,10,8.10
2012,01,23,13,11,11.30
2012,01,23,13,12,3.20
2012,01,23,13,13,8.10
2012,01,23,13,14,11.30
2012,01,23,13,15,9.60
2012,01,23,13,16,11.30
2012,01,23,13,17,14.50
2012,01,23,13,18,8.10
2012,01,23,13,19,8.10
2012,01,23,13,20,3.20
2012,01,23,13,21,8.10
2012,01,23,13,22,9.60
2012,01,23,13,23,19.30
2012,01,23,13,24,17.70
2012,01,23,13,25,14.50
2012,01,23,13,26,17.70
2012,01,23,13,27,6.40
2012,01,23,13,28,9.60
2012,01,23,13,29,12.90
2012,01,23,13,30,12.90
2012,01,23,13,31,12.90
2012,01,23,13,32,17.70
2012,01,23,13,33,12.90
2012,01,23,13,34,14.50
2012,01,23,13,35,14.50
2012,01,23,13,36,11.30
2012,01,23,13,37,8.10
2012,01,23,13,38,6.40
2012,01,23,13,39,8.10
2012,01,23,13,40,8.10
2012,01,23,13,41,11.30
2012,01,23,13,42,17.70
2012,01,23,13,43,14.50
2012,01,23,13,44,14.50
2012,01,23,13,45,12.90
2012,01,23,13,46,9.60
2012,01,23,13,47,14.50
2012,01,23,13,48,9.60
2012,01,23,13,49,8.10
2012,01,23,13,50,9.60
2012,01,23,13,51,11.30
2012,01,23,13,52,17.70
2012,01,23,13,53,14.50
2012,01,23,13,54,11.30
2012,01,23,13,55,6.40
2012,01,23,13,56,12.90
2012,01,23,13,57,17.70
2012,01,23,13,58,19.30
2012,01,23,13,59,14.50
2012,01,23,14,00,14.50
2012,01,23,14,01,17.70
2012,01,23,14,02,17.70
2012,01,23,14,03,11.30
2012,01,23,14,04,12.90
2012,01,23,14,05,17.70
2012,01,23,14,06,9.60
2012,01,23,14,07,11.30
2012,01,23,14,08,12.90
2012,01,23,14,09,20.90
2012,01,23,14,10,22.50
2012,01,23,14,11,19.30
2012,01,23,14,12,19.30
2012,01,23,14,13,22.50
2012,01,23,14,14,22.50
2012,01,23,14,15,12.90
2012,01,23,14,16,22.50
2012,01,23,14,17,20.90
2012,01,23,14,18,20.90
2012,01,23,14,19,19.30
2012,01,23,14,20,22.50
2012,01,23,14,21,22.50
2012,01,23,14,22,19.30
2012,01,23,14,23,24.20
2012,01,23,14,24,17.70
2012,01,23,14,25,19.30
2012,01,23,14,26,22.50
2012,01,23,14,27,19.30
2012,01,23,14,28,16.10
2012,01,23,14,29,22.50
2012,01,23,14,30,17.70
2012,01,23,14,31,22.50
2012,01,23,14,32,22.50
2012,01,23,14,33,17.70
2012,01,23,14,34,17.70
2012,01,23,14,35,17.70
2012,01,23,14,36,14.50
2012,01,23,14,37,22.50
2012,01,23,14,38,19.30
2012,01,23,14,39,25.70
2012,01,23,14,40,17.70
2012,01,23,14,41,20.90
2012,01,23,14,42,22.50
2012,01,23,14,43,16.10
2012,01,23,14,44,16.10
2012,01,23,14,45,20.90
2012,01,23,14,46,19.30
2012,01,23,14,47,16.10
2012,01,23,14,48,19.30
2012,01,23,14,49,14.50
2012,01,23,14,50,25.70
2012,01,23,14,51,11.30
2012,01,23,14,52,20.90
2012,01,23,14,53,20.90
2012,01,23,14,54,22.50
2012,01,23,14,55,22.50
2012,01,23,14,56,19.30
2012,01,23,14,57,17.70
2012,01,23,14,58,22.50
2012,01,23,14,59,20.90
2012,01,23,15,00,25.70
2012,01,23,15,01,19.30
2012,01,23,15,02,12.90
2012,01,23,15,03,19.30
2012,01,23,15,04,17.70
2012,01,23,15,05,12.90
2012,01,23,15,06,20.90
2012,01,23,15,07,17.70
2012,01,23,15,08,19.30
2012,01,23,15,09,17.70
2012,01,23,15,10,6.40
2012,01,23,15,11,11.30
2012,01,23,15,12,12.90
2012,01,23,15,13,12.90
2012,01,23,15,14,14.50
2012,01,23,15,15,14.50
2012,01,23,15,16,12.90
2012,01,23,15,17,11.30
2012,01,23,15,18,14.50
2012,01,23,15,19,14.50
2012,01,23,15,20,12.90
2012,01,23,15,21,12.90
2012,01,23,15,22,17.70
2012,01,23,15,23,12.90
2012,01,23,15,24,6.40
2012,01,23,15,25,12.90
2012,01,23,15,26,20.90
2012,01,23,15,27,17.70
2012,01,23,15,28,11.30
2012,01,23,15,29,12.90
2012,01,23,15,30,14.50
2012,01,23,15,31,14.50
2012,01,23,15,32,14.50
2012,01,23,15,33,19.30
2012,01,23,15,34,9.60
2012,01,23,15,35,9.60
2012,01,23,15,36,11.30
2012,01,23,15,37,9.60
2012,01,23,15,38,14.50
2012,01,23,15,39,12.90
2012,01,23,15,40,9.60
2012,01,23,15,41,19.30
2012,01,23,15,42,12.90
2012,01,23,15,43,9.60
2012,01,23,15,44,12.90
2012,01,23,15,45,12.90
2012,01,23,15,46,12.90
2012,01,23,15,47,8.10
2012,01,23,15,48,11.30
2012,01,23,15,49,11.30
2012,01,23,15,50,11.30
2012,01,23,15,51,11.30
2012,01,23,15,52,8.10
2012,01,23,15,54,6.40
2012,01,23,15,55,6.40
2012,01,23,15,56,9.60
2012,01,23,15,57,6.40
2012,01,23,15,58,12.90
2012,01,23,15,59,11.30
2012,01,23,16,00,6.40
2012,01,23,16,01,17.70
2012,01,23,16,02,17.70
2012,01,23,16,03,14.50
2012,01,23,16,04,8.10
2012,01,23,16,05,11.30
2012,01,23,16,06,6.40
2012,01,23,16,07,11.30
2012,01,23,16,08,12.90
2012,01,23,16,09,6.40
2012,01,23,16,10,9.60
2012,01,23,16,11,11.30
2012,01,23,16,12,12.90
2012,01,23,16,13,14.50
2012,01,23,16,14,9.60
2012,01,23,16,15,8.10
2012,01,23,16,16,8.10
2012,01,23,16,17,12.90
2012,01,23,16,18,9.60
2012,01,23,16,19,12.90
2012,01,23,16,20,12.90
2012,01,23,16,21,8.10
2012,01,23,16,23,9.60
2012,01,23,16,26,8.10
2012,01,23,16,27,8.10
2012,01,23,16,29,8.10
2012,01,23,16,30,3.20
2012,01,23,16,33,3.20
2012,01,23,16,35,3.20
2012,01,23,16,36,3.20
2012,01,23,16,37,3.20
2012,01,23,16,40,6.40
2012,01,23,16,41,6.40
2012,01,23,16,42,6.40
2012,01,23,16,43,8.10
2012,01,23,16,44,6.40
2012,01,23,16,45,6.40
2012,01,23,16,46,6.40
2012,01,23,16,47,6.40
2012,01,23,16,48,6.40
2012,01,23,16,49,9.60
2012,01,23,16,50,6.40
2012,01,23,16,51,6.40
2012,01,23,16,52,4.80
2012,01,23,16,53,8.10
2012,01,23,16,54,8.10
2012,01,23,16,55,6.40
2012,01,23,16,56,9.60
2012,01,23,16,57,8.10
2012,01,23,16,58,6.40
2012,01,23,16,59,6.40
2012,01,23,17,00,8.10
2012,01,23,17,01,8.10
2012,01,23,17,02,6.40
2012,01,23,17,03,3.20
2012,01,23,17,06,4.80
2012,01,23,17,31,6.40
2012,01,23,17,35,3.20
2012,01,23,17,37,3.20
2012,01,23,17,41,1.60
2012,01,23,17,43,4.80
2012,01,23,17,45,4.80
2012,01,23,17,46,1.60
2012,01,23,17,50,4.80
2012,01,23,17,52,1.60
2012,01,23,17,57,4.80
2012,01,23,19,23,1.60
2012,01,23,20,52,4.80
2012,01,23,20,53,3.20
2012,01,23,20,54,3.20
2012,01,23,20,55,1.60
2012,01,23,22,06,3.20
2012,01,23,22,07,4.80
2012,01,23,22,08,3.20
2012,01,23,22,12,3.20
2012,01,23,22,13,3.20
2012,01,23,22,14,6.40
2012,01,23,22,15,6.40
2012,01,23,22,16,3.20
2012,01,23,22,18,4.80
2012,01,23,22,19,4.80
2012,01,23,22,20,6.40
2012,01,23,22,21,4.80
2012,01,23,22,22,4.80
2012,01,23,22,23,4.80
2012,01,23,22,24,4.80
2012,01,23,22,25,4.80
2012,01,23,22,26,6.40
2012,01,23,22,27,9.60
2012,01,23,22,28,8.10
2012,01,23,22,29,9.60
2012,01,23,22,30,8.10
2012,01,23,22,31,8.10
2012,01,23,22,32,12.90
2012,01,23,22,33,9.60
2012,01,23,22,34,8.10
2012,01,23,22,35,9.60
2012,01,23,22,36,9.60
2012,01,23,22,37,8.10
2012,01,23,22,38,8.10
2012,01,23,22,39,9.60
2012,01,23,22,40,9.60
2012,01,23,22,41,9.60
2012,01,23,22,42,9.60
2012,01,23,22,43,3.20
2012,01,23,22,44,6.40
2012,01,23,22,45,9.60
2012,01,23,22,46,9.60
2012,01,23,22,47,11.30
2012,01,23,22,48,9.60
2012,01,23,22,49,9.60
2012,01,23,22,50,8.10
2012,01,23,22,51,6.40
2012,01,23,22,52,8.10
2012,01,23,22,53,9.60
2012,01,23,22,54,8.10
2012,01,23,22,58,8.10
2012,01,23,23,01,3.20
2012,01,23,23,02,8.10
2012,01,23,23,03,3.20
2012,01,23,23,14,6.40
2012,01,23,23,15,1.60
2012,01,23,23,16,6.40
2012,01,23,23,17,8.10
2012,01,23,23,25,6.40
2012,01,23,23,26,3.20
2012,01,23,23,27,6.40
2012,01,23,23,28,6.40
2012,01,23,23,47,1.60
2012,01,23,23,48,3.20
2012,01,23,23,50,6.40
2012,01,23,23,51,6.40
2012,01,23,23,53,3.20
2012,01,23,23,54,1.60
2012,01,23,23,56,3.20
2012,01,23,23,57,6.40
2012,01,23,23,58,4.80
2012,01,23,23,59,6.40
